Weather in Marcq-en-Barœul

France     50°40′11″N   3°04′43″E
temp.,
°C
wind,
m/s
gust,
m/s
humid.,
%
clouds,
%
prec.,
mm/h
press.,
hPa
HPBL,
m
15 april, thu
thu1523:00+2nne410845 0.0 1032293
02:00+1ne38875 0.0 1032197
05:000nne36905 0.0 1031119
08:00+1n248632 0.0 1032122
11:00+7n356695 0.4 10311141
14:00+9nne5545100 0.9 10302028
17:00+10nne664296 0.0 10291975
20:00+7nne586456 0.1 1029610
16 april, fri
fri1623:00+3nne498329 0.0 1030219
02:00+3ne388069 0.0 1030181
05:00+1ne36845 0.0 1029108
08:00+2ne37795 0.0 1030187
11:00+8ne57565 0.0 10301035
14:00+10ne674369 0.0 10291919
17:00+10nne775578 0.0 10271451
20:00+7n697216 0.1 1028548
17 april, sat
sat1723:00+4n4118568 0.0 1028299
02:00+3nne39885 0.0 1028198
05:00+2nne38875 0.0 1028163
08:00+3nne38800 0.0 1028224
11:00+9ne56560 0.0 1028888
14:00+12ne56455 0.0 10261568
17:00+11n665224 0.0 10251368
20:00+8n57717 0.0 1025421
18 april, sun
sun1823:00+4n38895 0.0 1026178
02:00+3nne358996 0.0 1025106
05:00+3n2390100 0.0 102561
08:00+4nnw2388100 0.0 1025113
11:00+9n236574 0.0 1025740
14:00+12nnw3252100 0.0 10231335
17:00+11nnw535599 0.0 10231146
20:00+8n4567100 0.0 1023302
19 april, mon
mon1923:00+6nne2375100 0.0 102370
02:00+4n117883 0.0 102316
05:00+4nne118039 0.0 102210
08:00+5ene117837 0.0 102130
11:00+11sse11605 0.0 1020562
14:00+14s224911 0.0 10191548
17:00+15sw124370 0.0 10171860
20:00+12e1362100 0.0 1016224